Tracking 17145 objects as of 29-May-2015
HD Live streaming from Space Station

BREEZE-M DEB

Track BREEZE-M DEB now!
10-day predictions
BREEZE-M DEB is classified as:


NORAD ID: 34259
Int'l Code: 2006-006CA
Perigee: 1,050.9 km
Apogee: 14,791.1 km
Inclination: 51.0 °
Period: 283.4 minutes
Semi major axis: 14292 km
RCS: 0.2413 m2 (medium)
Launch date: February 28, 2006
Source: Commonwealth of Independent States (former USSR) (CIS)

Note: This is SATELLITE DEBRIS
Your satellite tracking list
Your tracking list is empty





NASA's NSSDC Master Catalog

Two Line Element Set (TLE):
1 34259U 06006CA  15148.08428665  .00000018  00000-0  00000+0 0  9991
2 34259 050.9729 107.9439 4806947 264.3827 041.1492 05.08115214172334

Source of the keplerian elements: AFSPC

N2YO: 362